Flag for Chile Weather past 2 weeks in Easter Island, Chile

Now
75 °F

Scattered clouds.


Feels Like: 78 °F
Forecast: 63 / 75 °F
Wind: 5 mph from North

Location: Isla De Pascua

Current Time: Apr 26, 2015 at 4:12:10 PM

Latest Report: Apr 26, 2015 at 3:00 PM


Visibility: N/A

Pressure: 30.04 "Hg

Humidity: 57%

Dew point: 59 °F

Location of Easter IslandLocation

Historic Weather in Easter Island — Graph

°F

Easter Island temperature yesterday

Maximum temperature yesterday: 75 °F (at 1:00 PM)
Minimum temperature yesterday: 59 °F (at 6:00 AM)
Average temperature yesterday: 67 °F

Past Weeks' High & Low Weather Summary

 TemperatureHumidityPressure
High81 °F (Apr 16, 3:00 PM)94% (Apr 12, 2:00 AM)30.24 "Hg (Apr 12, 2:00 AM)
Low43 °F (Apr 21, 2:00 AM)54% (Apr 24, 1:00 PM)29.86 "Hg (Apr 12, 6:00 AM)
Average73 °F77%30.02 "Hg
* Reported Apr 11 3:00 PM — Apr 26 3:00 PM, Easter Island, Weather by CustomWeather, © 2015

Note: Actual official high and low records may vary slightly from our data, if they occured in-between our weather recording intervals... More about our weather records

Advertising

Easter Island weather history for previous 24 hours

 ConditionsComfort  
Time TempWeatherWind HumidityBarometerVisibility
3:00 PM
Sun, Apr 26
75 °FScattered clouds.5 mph57%30.04 "HgN/A
2:00 PM75 °FScattered clouds.3 mph57%30.07 "HgN/A
1:00 PM73 °FScattered clouds.5 mph65%30.07 "HgN/A
12:00 PM73 °FScattered clouds.6 mph65%30.07 "HgN/A
11:00 AM72 °FScattered clouds.8 mph69%30.07 "HgN/A
9:00 AM63 °FPartly sunny.No wind94%30.04 "HgN/A
8:00 AM64 °FPassing clouds.3 mph88%30.01 "HgN/A
6:00 AM64 °FPassing clouds.No wind83%29.98 "HgN/A
5:00 AM68 °FPassing clouds.2 mph73%30.01 "HgN/A
4:00 AM68 °FPassing clouds.No wind73%30.01 "HgN/A
3:00 AM68 °FPassing clouds.9 mph83%30.04 "HgN/A
2:00 AM72 °FPassing clouds.5 mph65%30.04 "HgN/A
1:00 AM70 °FPassing clouds.No wind73%30.04 "HgN/A
12:00 AM70 °FPassing clouds.3 mph69%30.04 "HgN/A
11:00 PM
Sat, Apr 25
70 °FPassing clouds.2 mph73%30.04 "HgN/A
10:00 PM72 °FPassing clouds.5 mph65%30.01 "HgN/A
9:00 PM70 °FPassing clouds.5 mph69%30.01 "HgN/A
8:00 PM72 °FPassing clouds.5 mph65%29.98 "HgN/A
7:00 PM73 °FPartly sunny.3 mph61%29.98 "HgN/A
6:00 PM73 °FBroken clouds.5 mph61%29.98 "HgN/A
5:00 PM73 °FBroken clouds.6 mph61%29.98 "HgN/A
4:00 PM75 °FBroken clouds.5 mph61%30.01 "HgN/A
Weather by CustomWeather, © 2015

See weather overviewHow to use our weather pages